Tracking 31011 objects as of 11-Jul-2025
HD Live streaming from Space Station
objects crossing your sky now

BEIDOU 3 IGSO-2

Track BEIDOU 3 IGSO-2 now!


NORAD ID: 44337
Int'l Code: 2019-035A
Perigee: 35,645.6 km
Apogee: 35,946.2 km
Inclination: 55.2 °
Period: 1,436.2 minutes
Semi major axis: 42166 km
RCS: Unknown
Launch date: June 24, 2019
Source: People's Republic of China (PRC)
Launch site: Xichang Space Center, China (XSC)
Your satellite tracking list
Your tracking list is empty




NASA's NSSDC Master Catalog

Two Line Element Set (TLE):
1 44337U 19035A   25190.85068039 -.00000102  00000-0  00000-0 0  9999
2 44337  55.2157 161.8700 0035646 210.6330 341.2267  1.00264020 22239
Source of the keplerian elements: AFSPC